Regional Weather Roundup
Issued by NWS Cleveland, OH

Home | Current Version | Previous Version | Graphics & Text | Print | Product List | Glossary On
Versions: 1 2 3 4 5 6 7 8 9 10 11 12 13 14 15 16 17 18 19 20 21 22 23 24 25 26 27 28 29 30 31 32 33 34 35 36 37 38 39 40 41 42 43 44 45 46 47 48 49 50
742
ASUS41 KCLE 300110
RWRCLE
OHIO REGIONAL WEATHER ROUNDUP
NATIONAL WEATHER SERVICE WILMINGTON, OH
900 PM EDT FRI JUL 29 2016

NOTE: "FAIR" INDICATES FEW OR NO CLOUDS BELOW 12,000 FEET WITH NO
SIGNIFICANT WEATHER AND/OR OBSTRUCTIONS TO VISIBILITY.

OHZ001>008-015>018-024>027-034-035-043-044-300200-
   NORTHWEST OHIO

CITY           SKY/WX    TMP DP  RH WIND       PRES   REMARKS
DEFIANCE       LGT RAIN  74  68  81 E5        29.96R
FINDLAY        MOCLDY    75  68  78 NE7       29.94R
TOLEDO EXPRESS MOCLDY    74  71  91 E5        29.95R
TOLEDO EXEC    FAIR      74  68  81 E5        29.96R
LIMA           CLOUDY    73  68  84 E5        29.94S
$$

OHZ009>014-019>023-028>033-038-089-300200-
   NORTHEAST OHIO

CITY           SKY/WX    TMP DP  RH WIND       PRES   REMARKS
CLE-HOPKINS    CLOUDY    78  66  66 SE5       29.97R
CLE-LAKEFRONT  FAIR      80  67  64 SE7       29.94R
CUY CO. ARPT   NOT AVBL
LORAIN-ELYRIA  FAIR      73  68  84 NE5       29.96R
ASHTABULA      FAIR      71  70  96 E3        29.98S
AKRON-CANTON   LGT RAIN  71  65  81 E7        29.97F
WOOSTER        FAIR      73  67  81 N3        29.97S
MANSFIELD      FAIR      72  65  78 E7        29.97R
YOUNGSTOWN     CLOUDY    70  67  90 E5        29.96S
$$

OHZ042-051>053-060>062-070>072-077>081-300200-
  SOUTHWEST OHIO

CITY           SKY/WX    TMP DP  RH WIND       PRES   REMARKS
CINC-COVINGTON CLOUDY    77  68  73 SW14G26   29.91R THUNDER
CINC-LUNKEN    TSTM      74  32  21 E6        29.92R
HAMILTON       FAIR      75  70  84 E7        29.92R
DAYTON         LGT RAIN  72  70  93 SW5       29.93F
WRIGHT-PAT AFB MOCLDY    72  72 100 CALM      29.92F
DAYTON GENERAL MOCLDY    73  68  84 CALM      29.92F
WILMINGTON     CLOUDY    71  68  90 W3        29.93R
$$

OHZ036-037-039>041-045>050-054>059-063>069-073>076-082>088-300200-
  CENTRAL AND SOUTHEAST OHIO

CITY           SKY/WX    TMP DP  RH WIND       PRES   REMARKS
COLUMBUS       MOCLDY    79  67  66 SE3       29.92R
OSU AIRPORT    FAIR      77  67  71 CALM      29.93R
BOLTON FIELD   FAIR      74  71  90 CALM      29.94S
RICKENBACK AFB FAIR      76  71  84 CALM      29.92R
NEWARK         FAIR      73  66  78 CALM      29.93R
MARION         FAIR      74  67  78 E5        29.94S
LANCASTER      MOCLDY    75  71  87 CALM      29.93R
ZANESVILLE     FAIR      79  70  74 CALM      29.93S
NEW PHILLY     LGT RAIN  75  67  76 W8        29.96R
$$




USA.gov is the U.S. government's official web portal to all federal, state and local government web resources and services.